Location: Clatteringshaws Loch
(55.0508°N, 4.2860°W)
Time: 04:21:26
(UTC+01:00)

ALOS - Visible Passes

Search period start: 30 April 2016 00:00
Search period end: 10 May 2016 00:00
Orbit: 685 x 687 km, 97.9° (Epoch: 28 April)

Date Brightness Start Highest point End Pass type
(mag) Time Alt. Az. Time Alt. Az. Time Alt. Az.
30 Apr 4.4 21:50:57 10° SSW 21:54:53 26° W 21:58:50 10° NW visible
01 May 5.0 22:30:47 10° WSW 22:33:04 13° W 22:35:22 10° NW visible
03 May 4.8 22:07:20 10° SW 22:10:45 20° W 22:14:11 10° NW visible
05 May 4.2 21:44:26 10° SSW 21:48:29 29° W 21:52:35 10° NNW visible
06 May 5.0 22:23:59 10° WSW 22:26:39 15° W 22:29:20 10° NW visible
08 May 4.7 22:00:43 10° SW 22:04:21 22° W 22:07:59 10° NW visible
09 May 5.2 22:41:21 10° W 22:42:36 11° W 22:43:51 10° WNW visible
